Вернуться в каталог

CZ-6A DEB

АктивенPO
NORAD 61144·DEBRIS·🇨🇳 China

Запущен Aug 6, 2024 с Taiyuan Satellite Launch Center

Loading…

Ближайшие Пролёты (ближайшие 24 часа)

TLE

СвежийSource: Space-Track

Эпоха: Sep 14, 2026, 10:11 UTC

1 61144U 24140QN  26257.42443934  .00000428  00000-0  11011-3 0  9993
2 61144  88.9474 256.2316 0089129   5.3936 354.8206 14.45919837108826

Отслеживайте CZ-6A DEB в реальном времени с AllMySat

Download on the App Store